Flag for Norway Weather past 2 weeks in Stavern, Norway

Now
61 °F

Passing clouds.


Feels Like: 61 °F
Forecast: 46 / 59 °F
Wind: 7 mph from South

Location: Torp


UV Index: 0 (Low)

Visibility: N/A


Pressure: 30.18 "Hg

Humidity: 45%

Dew point: 39 °F

Location of StavernLocation

Historic Weather in Stavern

°F

Stavern temperature yesterday

Maximum temperature yesterday: 55 °F (at 2:20 PM)
Minimum temperature yesterday: 34 °F (at 6:50 AM)
Average temperature yesterday: 46 °F

Past Weeks' High & Low Weather Summary

 TemperatureHumidityPressure
High61 °F (Apr 20, 3:50 PM)100% (Apr 5, 3:50 PM)30.33 "Hg (Apr 5, 3:50 PM)
Low34 °F (Apr 5, 3:50 PM)26% (Apr 15, 5:20 PM)29.39 "Hg (Apr 13, 4:50 AM)
Average43 °F76%29.86 "Hg
* Reported Apr 5 3:20 PM — Apr 20 3:50 PM, Stavern, Weather by CustomWeather, © 2014

Note: Actual official high and low records may vary slightly from our data, if they occured in-between our weather recording intervals... More about our weather records

Advertising

Historic Weather Conditions — Data for Previous 24 hours

 ConditionsComfort  
Time TempWeatherWind HumidityBarometerVisibility
3:50 PM
Apr 20
61 °FPassing clouds.7 mph45%30.18 "HgN/A
3:20 PM59 °FPassing clouds.7 mph48%30.18 "HgN/A
2:50 PM59 °FPassing clouds.6 mph51%30.18 "HgN/A
2:20 PM59 °FPassing clouds.6 mph51%30.18 "HgN/A
1:50 PM59 °FPassing clouds.8 mph51%30.18 "HgN/A
1:20 PM57 °FPassing clouds.6 mph55%30.21 "HgN/A
12:50 PM57 °FPassing clouds.6 mph59%30.21 "HgN/A
12:20 PM55 °FPassing clouds.8 mph59%30.21 "HgN/A
11:50 AM55 °FSunny.8 mph59%30.21 "Hg10 mi
11:20 AM54 °FSunny.8 mph63%30.21 "Hg10 mi
10:50 AM52 °FSunny.9 mph67%30.21 "Hg10 mi
10:20 AM50 °FSunny.10 mph71%30.21 "Hg10 mi
9:50 AM46 °FSunny.12 mph76%30.21 "Hg10 mi
9:20 AM45 °FSunny.10 mph81%30.21 "Hg10 mi
8:50 AM43 °FSunny.10 mph87%30.21 "Hg10 mi
8:20 AM41 °FSunny.8 mph93%30.24 "Hg10 mi
7:50 AM37 °FSunny.7 mph100%30.24 "Hg10 mi
7:20 AM36 °FSunny.7 mph100%30.21 "Hg10 mi
6:50 AM34 °FChilly.6 mph100%30.21 "HgN/A
6:20 AM34 °FChilly.6 mph100%30.21 "Hg1 mi
5:50 AM34 °FFog.6 mph100%30.21 "Hg0 mi
5:20 AM34 °FFog.7 mph100%30.24 "Hg0 mi
4:50 AM34 °FFog.6 mph100%30.21 "Hg0 mi
4:20 AM34 °FFog.5 mph100%30.21 "Hg0 mi
3:50 AM36 °FChilly.3 mph100%30.21 "Hg4 mi
3:20 AM37 °FChilly.3 mph93%30.21 "HgN/A
2:50 AM36 °FFog.3 mph100%30.21 "Hg2 mi
2:20 AM37 °FChilly.3 mph93%30.21 "HgN/A
1:50 AM37 °FChilly.1 mph100%30.21 "Hg4 mi
1:20 AM39 °FChilly.2 mph93%30.21 "HgN/A
12:50 AM39 °FChilly.2 mph93%30.21 "HgN/A
12:20 AM41 °FQuite cool.3 mph93%30.24 "HgN/A
10:20 PM
Apr 19
43 °FClear.3 mph87%30.21 "Hg10 mi
9:50 PM45 °FClear.6 mph81%30.24 "Hg10 mi
9:20 PM45 °FSunny.6 mph81%30.24 "Hg10 mi
8:50 PM46 °FSunny.6 mph82%30.24 "Hg10 mi
8:20 PM46 °FSunny.8 mph76%30.24 "Hg10 mi
7:50 PM50 °FSunny.8 mph71%30.24 "Hg10 mi
7:20 PM50 °FSunny.10 mph71%30.24 "Hg10 mi
6:50 PM52 °FSunny.10 mph67%30.24 "Hg10 mi
6:20 PM52 °FSunny.12 mph62%30.24 "Hg10 mi
5:50 PM52 °FSunny.10 mph62%30.24 "Hg10 mi
5:20 PM54 °FSunny.12 mph58%30.24 "Hg10 mi
4:50 PM54 °FSunny.10 mph58%30.24 "Hg10 mi
4:20 PM55 °FSunny.12 mph55%30.24 "Hg10 mi
Weather by CustomWeather, © 2014

See weather overview